Time,TemperatureF,DewpointF,PressureIn,WindDirection,WindDirectionDegrees,WindSpeedMPH,WindSpeedGustMPH,Humidity,HourlyPrecipIn,Conditions,Clouds,dailyrainin,SolarRadiationWatts/m^2,SoftwareType,DateUTC
2013-03-25 00:03:00,39.0,39.0,-100.00,WSW,245,10.0,17.0,99,0.01,,,0.65,0.000000,,2013-03-25 04:03:00,
2013-03-25 00:33:00,39.0,38.0,-100.00,WSW,242,10.0,19.0,98,0.02,,,0.67,0.000000,,2013-03-25 04:33:00,
2013-03-25 00:43:00,39.0,38.0,-100.00,WSW,242,10.0,19.0,98,0.02,,,0.67,0.000000,,2013-03-25 04:43:00,
2013-03-25 00:52:00,39.0,38.0,-100.00,WSW,242,10.0,19.0,98,0.02,,,0.67,0.000000,,2013-03-25 04:52:00,
2013-03-25 01:03:00,39.0,38.0,-100.00,WSW,242,10.0,19.0,98,0.02,,,0.67,0.000000,,2013-03-25 05:03:00,
2013-03-25 01:33:00,38.0,36.0,-100.00,SW,233,13.0,23.0,92,0.00,,,0.67,0.000000,,2013-03-25 05:33:00,
2013-03-25 01:42:00,38.0,36.0,-100.00,SW,233,13.0,23.0,92,0.00,,,0.67,0.000000,,2013-03-25 05:42:00,
2013-03-25 01:53:00,38.0,36.0,-100.00,SW,233,13.0,23.0,92,0.00,,,0.67,0.000000,,2013-03-25 05:53:00,
2013-03-25 02:02:00,38.0,36.0,-100.00,SW,233,13.0,23.0,92,0.00,,,0.67,0.000000,,2013-03-25 06:02:00,
2013-03-25 02:33:00,35.0,31.0,-100.00,WSW,238,14.0,32.0,85,0.01,,,-99.99,0.000000,,2013-03-25 06:33:00,
2013-03-25 02:42:00,35.0,31.0,-100.00,WSW,238,14.0,32.0,85,0.01,,,-99.99,0.000000,,2013-03-25 06:42:00,
2013-03-25 02:53:00,35.0,31.0,-100.00,WSW,238,14.0,32.0,85,0.01,,,-99.99,0.000000,,2013-03-25 06:53:00,
2013-03-25 03:02:00,35.0,31.0,-100.00,WSW,238,14.0,32.0,85,0.01,,,-99.99,0.000000,,2013-03-25 07:02:00,
2013-03-25 03:32:00,33.0,28.0,-100.00,WSW,238,11.0,31.0,80,0.00,,,0.68,0.000000,,2013-03-25 07:32:00,
2013-03-25 03:42:00,33.0,28.0,-100.00,WSW,238,11.0,31.0,80,0.00,,,0.68,0.000000,,2013-03-25 07:42:00,
2013-03-25 03:53:00,33.0,28.0,-100.00,WSW,238,11.0,31.0,80,0.00,,,0.68,0.000000,,2013-03-25 07:53:00,
2013-03-25 04:03:00,33.0,28.0,-100.00,WSW,238,11.0,31.0,80,0.00,,,0.68,0.000000,,2013-03-25 08:03:00,
2013-03-25 04:32:00,31.0,28.0,-100.00,SW,229,11.0,25.0,90,0.00,,,0.68,0.000000,,2013-03-25 08:32:00,
2013-03-25 04:43:00,31.0,28.0,-100.00,SW,229,11.0,25.0,90,0.00,,,0.68,0.000000,,2013-03-25 08:43:00,
2013-03-25 04:52:00,31.0,28.0,-100.00,SW,229,11.0,25.0,90,0.00,,,0.68,0.000000,,2013-03-25 08:52:00,
2013-03-25 05:02:00,31.0,28.0,-100.00,SW,229,11.0,25.0,90,0.00,,,0.68,0.000000,,2013-03-25 09:02:00,
2013-03-25 05:33:00,30.0,29.0,-100.00,SSW,210,7.0,17.0,95,0.00,,,0.68,0.000000,,2013-03-25 09:33:00,
2013-03-25 05:43:00,30.0,29.0,-100.00,SSW,210,7.0,17.0,95,0.00,,,0.68,0.000000,,2013-03-25 09:43:00,
2013-03-25 05:53:00,30.0,29.0,-100.00,SSW,210,7.0,17.0,95,0.00,,,0.68,0.000000,,2013-03-25 09:53:00,
2013-03-25 06:03:00,30.0,29.0,-100.00,SSW,210,7.0,17.0,95,0.00,,,0.68,0.000000,,2013-03-25 10:03:00,
2013-03-25 06:33:00,30.0,29.0,-100.00,WSW,238,13.0,23.0,96,0.00,,,0.68,0.000000,,2013-03-25 10:33:00,
2013-03-25 06:43:00,30.0,29.0,-100.00,WSW,238,13.0,23.0,96,0.00,,,0.68,0.000000,,2013-03-25 10:43:00,
2013-03-25 06:54:00,30.0,29.0,-100.00,WSW,238,13.0,23.0,96,0.00,,,0.68,0.000000,,2013-03-25 10:54:00,
2013-03-25 07:03:00,30.0,29.0,-100.00,WSW,238,13.0,23.0,96,0.00,,,0.68,0.000000,,2013-03-25 11:03:00,
2013-03-25 07:33:00,30.0,28.0,-100.00,WSW,246,14.0,28.0,93,0.00,,,0.68,0.000000,,2013-03-25 11:33:00,
2013-03-25 07:43:00,30.0,28.0,-100.00,WSW,246,14.0,28.0,93,0.00,,,0.68,0.000000,,2013-03-25 11:43:00,
2013-03-25 07:53:00,30.0,28.0,-100.00,WSW,246,14.0,28.0,93,0.00,,,0.68,0.000000,,2013-03-25 11:53:00,
2013-03-25 08:03:00,30.0,28.0,-100.00,WSW,246,14.0,28.0,93,0.00,,,0.68,0.000000,,2013-03-25 12:03:00,
2013-03-25 08:33:00,29.0,28.0,-100.00,WSW,243,12.0,26.0,95,0.00,,,0.68,1.000000,,2013-03-25 12:33:00,
2013-03-25 08:43:00,29.0,28.0,-100.00,WSW,243,12.0,26.0,95,0.00,,,0.68,1.000000,,2013-03-25 12:43:00,
2013-03-25 08:54:00,29.0,28.0,-100.00,WSW,243,12.0,26.0,95,0.00,,,0.68,1.000000,,2013-03-25 12:54:00,
2013-03-25 09:03:00,29.0,28.0,-100.00,WSW,243,12.0,26.0,95,0.00,,,0.68,1.000000,,2013-03-25 13:03:00,
2013-03-25 09:32:00,30.0,28.0,-100.00,WSW,251,12.0,23.0,92,0.00,,,0.67,14.000000,,2013-03-25 13:32:00,
2013-03-25 09:43:00,30.0,28.0,-100.00,WSW,251,12.0,23.0,92,0.00,,,0.67,14.000000,,2013-03-25 13:43:00,
2013-03-25 09:53:00,30.0,28.0,-100.00,WSW,251,12.0,23.0,92,0.00,,,0.67,14.000000,,2013-03-25 13:53:00,
2013-03-25 10:03:00,30.0,28.0,-100.00,WSW,251,12.0,23.0,92,0.00,,,0.67,14.000000,,2013-03-25 14:03:00,
2013-03-25 10:33:00,30.0,28.0,-100.00,WSW,253,10.0,25.0,91,0.00,,,0.67,38.000000,,2013-03-25 14:33:00,
2013-03-25 10:43:00,30.0,28.0,-100.00,WSW,253,10.0,25.0,91,0.00,,,0.67,38.000000,,2013-03-25 14:43:00,
2013-03-25 10:53:00,30.0,28.0,-100.00,WSW,253,10.0,25.0,91,0.00,,,0.67,38.000000,,2013-03-25 14:53:00,
2013-03-25 11:03:00,30.0,28.0,-100.00,WSW,253,10.0,25.0,91,0.00,,,0.67,38.000000,,2013-03-25 15:03:00,
2013-03-25 11:33:00,31.0,29.0,-100.00,West,261,14.0,24.0,92,0.00,,,0.64,37.000000,,2013-03-25 15:33:00,
2013-03-25 11:43:00,31.0,29.0,-100.00,West,261,14.0,24.0,92,0.00,,,0.64,37.000000,,2013-03-25 15:43:00,
2013-03-25 11:54:00,31.0,29.0,-100.00,West,261,14.0,24.0,92,0.00,,,0.64,37.000000,,2013-03-25 15:54:00,
2013-03-25 12:03:00,31.0,29.0,-100.00,West,261,14.0,24.0,92,0.00,,,0.64,37.000000,,2013-03-25 16:03:00,
2013-03-25 12:33:00,33.0,27.0,-100.00,West,265,18.0,29.0,77,0.05,,,0.60,212.000000,,2013-03-25 16:33:00,
2013-03-25 12:44:00,33.0,27.0,-100.00,West,265,18.0,29.0,77,0.05,,,0.60,212.000000,,2013-03-25 16:44:00,
2013-03-25 12:53:00,33.0,27.0,-100.00,West,265,18.0,29.0,77,0.05,,,0.60,212.000000,,2013-03-25 16:53:00,
2013-03-25 13:03:00,33.0,27.0,-100.00,West,265,18.0,29.0,77,0.05,,,0.60,212.000000,,2013-03-25 17:03:00,
2013-03-25 13:33:00,33.0,26.0,-100.00,West,264,16.0,31.0,75,0.03,,,0.59,311.000000,,2013-03-25 17:33:00,
2013-03-25 13:43:00,33.0,26.0,-100.00,West,264,16.0,31.0,75,0.03,,,0.59,311.000000,,2013-03-25 17:43:00,
2013-03-25 13:53:00,33.0,26.0,-100.00,West,264,16.0,31.0,75,0.03,,,0.59,311.000000,,2013-03-25 17:53:00,
2013-03-25 14:04:00,33.0,26.0,-100.00,West,264,16.0,31.0,75,0.03,,,0.59,311.000000,,2013-03-25 18:04:00,
2013-03-25 14:33:00,33.0,29.0,-100.00,West,265,10.0,27.0,86,0.01,,,0.55,254.000000,,2013-03-25 18:33:00,
2013-03-25 14:43:00,33.0,29.0,-100.00,West,265,10.0,27.0,86,0.01,,,0.55,254.000000,,2013-03-25 18:43:00,
2013-03-25 14:53:00,33.0,29.0,-100.00,West,265,10.0,27.0,86,0.01,,,0.55,254.000000,,2013-03-25 18:53:00,
2013-03-25 15:03:00,33.0,29.0,-100.00,West,265,10.0,27.0,86,0.01,,,0.55,254.000000,,2013-03-25 19:03:00,
2013-03-25 15:33:00,33.0,30.0,-100.00,West,265,9.0,24.0,90,0.01,,,0.54,217.000000,,2013-03-25 19:33:00,
2013-03-25 15:43:00,33.0,30.0,-100.00,West,265,9.0,24.0,90,0.01,,,0.54,217.000000,,2013-03-25 19:43:00,
2013-03-25 15:53:00,33.0,30.0,-100.00,West,265,9.0,24.0,90,0.01,,,0.54,217.000000,,2013-03-25 19:53:00,
2013-03-25 16:02:00,33.0,30.0,-100.00,West,265,9.0,24.0,90,0.01,,,0.54,217.000000,,2013-03-25 20:02:00,
2013-03-25 16:32:00,32.0,30.0,-100.00,West,272,11.0,25.0,91,0.02,,,0.56,217.000000,,2013-03-25 20:32:00,
2013-03-25 16:42:00,32.0,30.0,-100.00,West,272,11.0,25.0,91,0.02,,,0.56,217.000000,,2013-03-25 20:42:00,
2013-03-25 16:52:00,32.0,30.0,-100.00,West,272,11.0,25.0,91,0.02,,,0.56,217.000000,,2013-03-25 20:52:00,
2013-03-25 17:03:00,32.0,30.0,-100.00,West,272,11.0,25.0,91,0.02,,,0.56,217.000000,,2013-03-25 21:03:00,
2013-03-25 17:33:00,32.0,30.0,-100.00,West,265,11.0,24.0,93,0.01,,,0.57,150.000000,,2013-03-25 21:33:00,
2013-03-25 17:43:00,32.0,30.0,-100.00,West,265,11.0,24.0,93,0.01,,,0.57,150.000000,,2013-03-25 21:43:00,
2013-03-25 17:52:00,32.0,30.0,-100.00,West,265,11.0,24.0,93,0.01,,,0.57,150.000000,,2013-03-25 21:52:00,
2013-03-25 18:03:00,32.0,30.0,-100.00,West,265,11.0,24.0,93,0.01,,,0.57,150.000000,,2013-03-25 22:03:00,
2013-03-25 18:33:00,32.0,30.0,-100.00,West,264,12.0,23.0,93,0.01,,,0.57,115.000000,,2013-03-25 22:33:00,
2013-03-25 18:43:00,32.0,30.0,-100.00,West,264,12.0,23.0,93,0.01,,,0.57,115.000000,,2013-03-25 22:43:00,
2013-03-25 18:52:00,32.0,30.0,-100.00,West,264,12.0,23.0,93,0.01,,,0.57,115.000000,,2013-03-25 22:52:00,
2013-03-25 19:03:00,32.0,30.0,-100.00,West,264,12.0,23.0,93,0.01,,,0.57,115.000000,,2013-03-25 23:03:00,
2013-03-25 19:33:00,31.0,29.0,-100.00,West,263,10.0,24.0,94,0.00,,,0.33,29.000000,,2013-03-25 23:33:00,
2013-03-25 19:43:00,31.0,29.0,-100.00,West,263,10.0,24.0,94,0.00,,,0.33,29.000000,,2013-03-25 23:43:00,
2013-03-25 19:53:00,31.0,29.0,-100.00,West,263,10.0,24.0,94,0.00,,,0.33,29.000000,,2013-03-25 23:53:00,
2013-03-25 20:02:00,31.0,29.0,-100.00,West,263,10.0,24.0,94,0.00,,,0.33,29.000000,,2013-03-26 00:02:00,
2013-03-25 21:33:00,31.0,30.0,-100.00,West,265,10.0,20.0,95,-99.99,,,0.18,0.000000,,2013-03-26 01:33:00,
2013-03-25 21:42:00,31.0,30.0,-100.00,West,265,10.0,20.0,95,-99.99,,,0.18,0.000000,,2013-03-26 01:42:00,
2013-03-25 21:53:00,31.0,30.0,-100.00,West,265,10.0,20.0,95,-99.99,,,0.18,0.000000,,2013-03-26 01:53:00,
2013-03-25 22:02:00,31.0,30.0,-100.00,West,265,10.0,20.0,95,-99.99,,,0.18,0.000000,,2013-03-26 02:02:00,
2013-03-25 22:32:00,30.0,29.0,-100.00,West,272,10.0,19.0,95,0.00,,,0.18,0.000000,,2013-03-26 02:32:00,
2013-03-25 22:43:00,30.0,29.0,-100.00,West,272,10.0,19.0,95,0.00,,,0.18,0.000000,,2013-03-26 02:43:00,
2013-03-25 22:52:00,30.0,29.0,-100.00,West,272,10.0,19.0,95,0.00,,,0.18,0.000000,,2013-03-26 02:52:00,
2013-03-25 23:02:00,30.0,29.0,-100.00,West,272,10.0,19.0,95,0.00,,,0.18,0.000000,,2013-03-26 03:02:00,
2013-03-25 23:34:00,30.0,29.0,-100.00,West,270,9.0,19.0,96,0.00,,,0.17,0.000000,,2013-03-26 03:34:00,
2013-03-25 23:43:00,30.0,29.0,-100.00,West,270,9.0,19.0,96,0.00,,,0.17,0.000000,,2013-03-26 03:43:00,
2013-03-25 23:53:00,30.0,29.0,-100.00,West,270,9.0,19.0,96,0.00,,,0.17,0.000000,,2013-03-26 03:53:00,